CST,Max TemperatureF,Mean TemperatureF,Min TemperatureF,Max Dew PointF,MeanDew PointF,Min DewpointF,Max Humidity, Mean Humidity, Min Humidity, Max Sea Level PressureIn, Mean Sea Level PressureIn, Min Sea Level PressureIn, Max VisibilityMiles, Mean VisibilityMiles, Min VisibilityMiles, Max Wind SpeedMPH, Mean Wind SpeedMPH, Max Gust SpeedMPH,PrecipitationIn, CloudCover, Events, WindDirDegrees
2013-12-1,44,35,26,30,29,25,93,78,57,30.14,30.05,29.90,10,9,6,9,6,,0.00,4,,21
2013-12-2,53,43,33,41,35,28,93,80,58,29.90,29.68,29.55,10,8,4,18,9,25,0.00,5,,156
2013-12-3,53,44,35,43,40,36,100,93,67,29.64,29.57,29.51,9,2,0,13,7,15,0.00,6,Fog,193
2013-12-4,39,29,19,39,31,12,100,93,74,29.94,29.65,29.52,10,4,0,23,7,30,0.00,8,Fog,299
2013-12-5,19,14,10,12,5,0,74,64,53,30.37,30.19,29.91,10,10,9,22,17,31,0.00,5,Rain-Snow,307
2013-12-6,14,10,5,0,-3,-6,72,59,41,30.64,30.51,30.38,10,10,10,16,13,22,0.00,4,,324
2013-12-7,15,6,-2,0,-4,-9,78,61,41,30.75,30.62,30.46,10,10,10,14,8,14,0.00,2,,22
2013-12-8,19,16,12,16,10,0,93,77,57,30.46,30.15,29.99,10,6,0,15,10,21,0.00,6,Rain-Snow,104
2013-12-9,14,6,-2,10,-3,-11,86,68,48,30.30,30.21,30.08,10,10,10,16,9,22,0.00,1,,265
2013-12-10,23,14,5,14,7,-4,68,61,46,30.21,30.15,30.03,10,10,10,22,13,29,0.00,4,,233
2013-12-11,24,12,1,21,0,-8,86,63,48,30.60,30.48,30.18,10,10,6,24,11,34,0.00,3,Rain-Snow,301
2013-12-12,30,16,3,18,8,-4,86,65,54,30.51,30.31,30.12,10,10,9,16,10,21,0.00,2,,209
2013-12-13,33,26,19,28,23,14,93,82,74,30.11,29.99,29.92,10,8,4,17,9,13,0.00,4,Rain,141
2013-12-14,24,19,14,25,18,10,100,88,74,30.16,30.08,29.98,10,5,2,18,13,24,0.00,7,Rain-Snow,336
2013-12-15,23,18,12,14,10,7,86,70,54,30.14,30.07,30.00,10,10,8,13,6,15,0.00,6,Snow,31
2013-12-16,32,24,15,25,20,12,93,86,75,30.11,30.04,29.97,10,6,1,13,8,15,0.00,6,,253
2013-12-17,39,30,21,27,19,12,93,64,36,30.22,30.16,30.09,10,10,8,31,10,39,0.00,2,,273
2013-12-18,53,36,19,34,25,12,81,60,40,30.18,29.88,29.75,10,10,10,28,12,38,0.00,1,,195
2013-12-19,41,36,32,36,33,30,100,89,75,29.84,29.76,29.71,10,7,0,14,7,,0.00,5,Fog-Rain,30
2013-12-20,32,26,21,32,25,19,100,96,86,29.89,29.83,29.75,8,3,0,20,12,39,0.00,7,Fog-Rain,336
2013-12-21,26,24,21,25,21,18,100,91,86,29.88,29.79,29.69,10,6,0,16,8,22,0.02,8,Rain-Snow,4
2013-12-22,26,16,6,25,15,0,100,83,72,30.31,30.01,29.72,10,7,0,20,14,25,0.02,6,Snow,324
2013-12-23,6,0,-5,0,-9,-17,78,62,47,30.55,30.47,30.31,10,10,10,17,12,24,0.00,4,,288
2013-12-24,21,0,-20,19,-7,-27,93,68,52,30.54,30.37,30.19,10,9,2,16,8,24,0.00,5,Snow,174
2013-12-25,33,27,21,28,21,16,93,84,69,30.26,30.21,30.16,10,7,3,22,10,29,0.00,6,,267
2013-12-26,39,27,15,27,20,10,86,73,56,30.25,30.17,30.09,10,10,10,17,9,24,0.00,2,,227
2013-12-27,44,30,17,28,24,14,93,71,53,30.25,30.19,30.11,10,10,10,14,8,20,0.00,0,,222
2013-12-28,44,38,32,32,30,28,87,70,57,30.10,29.94,29.82,10,10,10,23,11,33,0.00,0,,209
2013-12-29,30,15,0,27,1,-11,86,65,41,30.30,30.18,29.92,10,10,6,28,20,38,0.00,4,Rain-Snow,323
2013-12-30,21,10,-2,14,0,-11,86,64,49,30.30,30.21,30.10,10,10,2,18,6,26,0.00,5,Snow,199
2013-12-31,26,17,8,16,8,5,85,76,63,30.29,30.20,30.08,10,10,10,20,9,24,0.00,4,,39